Location: Ciserano
(45.5833°N, 9.6000°E)
Time: 16:33:01
(UTC+00:00)

SJ 16-02 - Pass Details

Date: 22 April 2021
Orbit: 605 x 617 km, 75.0° (Epoch: 11 May)

Event Time Altitude Azimuth Distance (km) Brightness Sun altitude
Exits shadow 00:39:49 41° 31° (NNE) 899 2.5 -29.5°
Drops below altitude 10° 00:42:46 10° 23° (NNE) 1,988 4.9 -29.3°
Sets 00:45:02 0° 22° (NNE) 2,899 6.0 -29.1°
